Location: La Fredeussais
(48.1780°N, 1.3980°W)
Time: 08:38:00
(UTC+00:00)

Cosmos 2074 Rocket - Pass Details

Date: 09 May 2021
Orbit: 968 x 985 km, 82.9° (Epoch: 12 June)

Event Time Altitude Azimuth Distance (km) Brightness Sun altitude
Rises 22:02:58 0° 349° (N) 3,704 8.4 -19.0°
Reaches altitude 10° 22:05:30 10° 347° (NNW) 2,753 7.5 -19.3°
Maximum altitude 22:11:47 72° 265° (W) 1,036 4.1 -19.8°
Enters shadow 22:15:14 28° 187° (S) 1,748 4.9 -20.0°
